軌道要素
Epoch 2018 Feb. 11.0 TT = JDT 2458160.5
T 2018 Jan. 23.46931 TT MPCW
q 2.0271368 (2000.0) P Q
n 0.10656735 Peri. 120.23382 -0.98184437 +0.14721971
a 4.4060890 Node 68.45736 -0.18525213 -0.87978070
e 0.5399238 Incl. 7.38866 +0.04078326 -0.45200915
P 9.25
From 163 observations 2017 Nov. 17-2018 June 12, mean residual 0".5.
|